Weather reports worldwide

Advertisment
Boulmer, United Kingdom (3240): temperature & dewpoint: 21.04.2017 04:00:00 - 27.04.2017 04:00:00 (BST)Boulmer, United Kingdom (3240): wind speed & gusts: 21.04.2017 04:00:00 - 27.04.2017 04:00:00 (BST)Boulmer, United Kingdom (3240): wind direction: 21.04.2017 04:00:00 - 27.04.2017 04:00:00 (BST)Boulmer, United Kingdom (3240): reduced air pressure: 21.04.2017 04:00:00 - 27.04.2017 04:00:00 (BST)Boulmer, United Kingdom (3240): visibility: 21.04.2017 04:00:00 - 27.04.2017 04:00:00 (BST)Boulmer, United Kingdom (3240): sunshine duration: 21.04.2017 04:00:00 - 27.04.2017 04:00:00 (BST)Boulmer, United Kingdom (3240): precipitation: 21.04.2017 04:00:00 - 27.04.2017 04:00:00 (BST)
Date & Time tt [°C] td [°C] ff [km/h] ff [kn] fx [km/h] fx [kn] dd ppp [hPa] vv [km] sd [min] rr [mm]
27.04.2017 04:00:00 5,8 2,6 16 9 - - WSW 1016,5 10 0 0,0
27.04.2017 03:00:00 6,0 2,1 16 9 - - W 1017,2 10 0 0,0
27.04.2017 02:00:00 6,0 1,1 15 8 - - W 1017,8 10 0 0,0
27.04.2017 01:00:00 5,2 0,1 15 8 - - WSW 1018,3 10 - 0,0
27.04.2017 00:00:00 5,5 -0,1 15 8 - - WSW 1018,9 10 0 0,0
26.04.2017 23:00:00 4,5 1,4 11 6 - - WSW 1019,6 10 0 0,0
26.04.2017 22:00:00 4,7 1,4 9 5 - - SW 1019,8 10 0 0,0
26.04.2017 21:00:00 5,8 0,3 5 3 - - W 1020,1 10 0 0,0
26.04.2017 20:00:00 6,1 -0,6 9 5 - - NNW 1020,1 10 0 0,0
26.04.2017 19:00:00 6,4 -0,1 13 7 - - N 1020,2 10 0 0,0
26.04.2017 18:00:00 6,4 -0,6 15 8 - - N 1020,3 10 36 0,0
26.04.2017 17:00:00 7,4 0,1 16 9 - - N 1020,2 10 60 0,0
26.04.2017 16:00:00 7,4 1,0 22 12 - - NNE 1020,4 10 60 0,0
26.04.2017 15:00:00 7,8 -0,4 22 12 - - N 1020,5 10 60 0,0
26.04.2017 14:00:00 7,3 0,0 24 13 - - N 1020,6 10 54 0,0
26.04.2017 13:00:00 7,3 1,2 24 13 - - N 1020,6 10 42 0,0
26.04.2017 12:00:00 6,6 -0,1 24 13 - - N 1020,4 10 42 0,0
26.04.2017 11:00:00 5,5 1,9 21 11 46 25 NW 1020,2 6 42 0,2
26.04.2017 10:00:00 5,8 0,7 29 16 48 26 NNW 1019,9 10 36 0,0
26.04.2017 09:00:00 3,8 0,4 15 8 - - NNW 1020,0 10 12 0,0
26.04.2017 08:00:00 3,1 -0,1 24 13 - - NW 1019,4 10 6 0,0
26.04.2017 07:00:00 2,9 -0,2 26 14 - - NW 1019,3 10 0 0,0
26.04.2017 06:00:00 2,8 0,1 22 12 - - NW 1019,0 10 0 0,0
26.04.2017 05:00:00 3,2 0,5 18 10 46 25 NW 1018,6 10 0 1,0
26.04.2017 04:00:00 3,8 1,3 26 14 - - NNW 1018,4 10 0 0,2
26.04.2017 03:00:00 3,6 1,2 24 13 - - NNW 1018,6 10 0 0,0
26.04.2017 02:00:00 3,8 1,1 29 16 54 29 N 1018,4 10 0 0,0
26.04.2017 01:00:00 3,7 1,3 29 16 46 25 NNW 1018,2 10 - 0,2
26.04.2017 00:00:00 4,1 2,0 28 15 54 29 NNW 1018,0 10 0 0,0
25.04.2017 23:00:00 4,3 2,1 29 16 52 28 NNW 1017,7 10 0 2,6
25.04.2017 22:00:00 4,1 2,2 28 15 57 31 NNW 1017,5 10 0 0,6
25.04.2017 21:00:00 4,6 1,8 31 17 61 33 NNW 1016,9 10 0 1,0
25.04.2017 20:00:00 4,5 2,2 26 14 61 33 NNW 1016,4 10 18 0,2
25.04.2017 19:00:00 3,9 2,4 29 16 57 31 NNW 1016,0 10 12 1,4
25.04.2017 18:00:00 4,8 2,5 26 14 57 31 NNW 1015,5 10 0 0,4
25.04.2017 17:00:00 4,0 2,4 35 19 72 39 NNW 1015,5 10 30 0,4
25.04.2017 16:00:00 6,7 2,1 35 19 63 34 NNW 1014,8 10 48 0,0
25.04.2017 15:00:00 7,4 2,7 39 21 67 36 NW 1014,2 10 54 0,0
25.04.2017 14:00:00 6,3 2,8 41 22 63 34 NNW 1013,7 10 54 0,0
25.04.2017 13:00:00 7,1 2,1 41 22 63 34 NNW 1013,2 10 36 0,0
25.04.2017 12:00:00 6,7 2,1 42 23 65 35 NW 1012,9 10 30 0,0
25.04.2017 11:00:00 4,9 1,7 39 21 65 35 NNW 1012,7 10 6 0,2
25.04.2017 10:00:00 4,6 2,5 35 19 54 29 NW 1012,1 10 12 0,4
25.04.2017 09:00:00 3,6 1,4 34 18 57 31 NW 1011,7 10 6 0,0
25.04.2017 08:00:00 3,6 -0,8 34 18 50 27 NW 1011,4 45 6 0,0
25.04.2017 07:00:00 2,8 -1,3 28 15 48 26 WNW 1011,2 10 12 0,0
25.04.2017 06:00:00 1,9 -1,7 29 16 46 25 WNW 1011,4 10 0 0,0
25.04.2017 05:00:00 1,9 -1,8 24 13 - - WNW 1011,6 10 0 0,0
25.04.2017 04:00:00 2,1 -1,1 24 13 - - WNW 1011,7 10 0 0,0
25.04.2017 03:00:00 1,4 -0,7 21 11 - - WNW 1011,9 10 0 0,0
25.04.2017 02:00:00 1,8 -2,2 22 12 - - WNW 1012,0 45 0 0,0
25.04.2017 01:00:00 1,7 -1,7 13 7 - - WNW 1011,6 10 - 0,0
25.04.2017 00:00:00 2,0 -2,2 13 7 - - WNW 1011,5 10 0 0,0
24.04.2017 23:00:00 2,5 -2,1 18 10 - - WNW 1011,0 10 0 0,0
24.04.2017 22:00:00 3,1 -2,5 18 10 50 27 NW 1011,1 10 0 0,0
24.04.2017 21:00:00 3,1 -1,4 29 16 59 32 NW 1011,0 10 0 0,0
24.04.2017 20:00:00 2,3 -0,3 34 18 55 30 NW 1010,6 10 0 0,4
24.04.2017 19:00:00 2,2 0,4 37 20 67 36 WNW 1010,8 10 0 0,0
24.04.2017 18:00:00 5,1 -1,4 41 22 70 38 NW 1010,3 10 6 0,0
24.04.2017 17:00:00 7,5 -1,4 31 17 57 31 WNW 1009,3 10 12 0,0
24.04.2017 16:00:00 7,3 1,4 22 12 65 35 W 1009,5 10 18 0,2
24.04.2017 15:00:00 9,9 -4,1 28 15 55 30 W 1009,2 10 36 0,0
24.04.2017 14:00:00 10,2 -4,3 28 15 48 26 W 1010,0 10 42 0,0
24.04.2017 13:00:00 9,7 -2,3 24 13 - - W 1010,8 10 18 0,0
24.04.2017 12:00:00 9,8 -2,1 24 13 - - W 1011,5 10 48 0,0
24.04.2017 11:00:00 8,4 -0,6 18 10 - - W 1012,8 10 12 0,0
24.04.2017 10:00:00 7,9 0,6 21 11 - - WNW 1013,0 10 42 0,0
24.04.2017 09:00:00 7,9 2,6 15 8 - - NNW 1013,3 10 48 0,0
24.04.2017 08:00:00 6,6 3,5 11 6 - - WNW 1013,7 10 18 0,0
24.04.2017 07:00:00 5,6 3,2 9 5 - - WNW 1013,5 10 0 0,0
24.04.2017 06:00:00 5,2 3,0 16 9 - - NW 1013,3 10 0 0,4
24.04.2017 05:00:00 5,4 3,7 29 16 48 26 NNW 1013,4 6 0 0,2
24.04.2017 04:00:00 7,7 5,1 22 12 - - WSW 1012,7 10 0 0,0
24.04.2017 03:00:00 7,9 4,6 21 11 - - WSW 1013,3 10 0 0,0
24.04.2017 02:00:00 8,5 4,8 24 13 - - WSW 1013,7 10 0 0,0
24.04.2017 01:00:00 8,3 5,1 21 11 - - WSW 1014,6 10 - 0,0
24.04.2017 00:00:00 8,1 4,7 28 15 - - WSW 1015,2 10 0 0,0
23.04.2017 23:00:00 7,8 4,9 24 13 - - SW 1016,0 10 0 0,0
23.04.2017 22:00:00 9,0 4,1 22 12 - - WSW 1016,8 10 0 0,0
23.04.2017 21:00:00 9,8 3,0 21 11 - - WSW 1017,4 10 0 0,0
23.04.2017 20:00:00 10,4 3,9 21 11 - - SW 1017,8 10 48 0,0
23.04.2017 19:00:00 12,5 5,0 24 13 - - SW 1018,2 10 18 0,0
23.04.2017 18:00:00 13,3 3,8 26 14 - - WSW 1018,9 10 48 0,0
23.04.2017 17:00:00 14,8 3,5 26 14 - - SW 1019,4 10 54 0,0
23.04.2017 16:00:00 14,5 2,8 22 12 - - WSW 1020,3 10 60 0,0
23.04.2017 15:00:00 13,6 2,9 21 11 - - WSW 1021,4 10 54 0,0
23.04.2017 14:00:00 10,6 6,3 22 12 - - SE 1022,6 10 60 0,0
23.04.2017 13:00:00 10,0 5,5 16 9 - - ESE 1023,9 10 48 0,0
23.04.2017 12:00:00 10,8 3,7 9 5 - - SSW 1024,6 10 30 0,0
23.04.2017 11:00:00 10,2 0,9 11 6 - - WSW 1025,3 10 60 0,0
23.04.2017 10:00:00 9,2 1,5 9 5 - - WSW 1025,7 10 60 0,0
23.04.2017 09:00:00 8,3 2,3 9 5 - - WSW 1026,3 10 60 0,0
23.04.2017 08:00:00 6,7 3,0 5 3 - - WNW 1026,5 10 42 0,0
23.04.2017 07:00:00 4,2 1,8 13 7 - - W 1026,3 10 12 0,0
23.04.2017 06:00:00 2,9 1,2 8 4 - - W 1026,5 10 0 0,0
23.04.2017 05:00:00 4,3 2,3 8 4 - - W 1026,8 10 0 0,0
23.04.2017 04:00:00 4,9 2,6 5 3 - - NW 1027,0 10 0 0,0
23.04.2017 03:00:00 5,2 2,6 8 4 - - NNW 1027,3 10 0 0,0
23.04.2017 02:00:00 5,3 2,3 9 5 - - NNW 1027,7 10 0 0,0
23.04.2017 01:00:00 5,0 2,7 4 2 - - WSW 1027,8 10 - 0,0
23.04.2017 00:00:00 4,5 2,3 5 3 - - S 1028,0 10 0 0,0
22.04.2017 23:00:00 4,9 2,5 5 3 - - SSW 1028,1 10 0 0,0
22.04.2017 22:00:00 5,9 2,0 5 3 - - S 1028,2 10 0 0,0
22.04.2017 21:00:00 6,0 1,8 5 3 - - S 1028,2 10 0 0,0
22.04.2017 20:00:00 6,6 2,9 8 4 - - SSE 1028,2 10 0 0,0
22.04.2017 19:00:00 7,4 1,6 5 3 - - ENE 1028,2 10 24 0,0
22.04.2017 18:00:00 8,1 1,2 11 6 - - NE 1028,4 10 60 0,0
22.04.2017 17:00:00 8,5 0,5 13 7 - - NNE 1028,7 10 12 0,0
22.04.2017 16:00:00 8,2 1,2 13 7 - - N 1029,2 50 0 0,0
22.04.2017 15:00:00 7,8 0,8 15 8 - - NNE 1029,4 35 6 0,0
22.04.2017 14:00:00 8,3 0,9 18 10 - - NNE 1029,7 45 12 0,0
22.04.2017 13:00:00 8,3 -1,1 18 10 - - NNW 1029,9 40 0 0,0
22.04.2017 12:00:00 7,4 1,4 16 9 - - NNW 1030,2 10 0 0,0
22.04.2017 11:00:00 8,4 1,9 16 9 - - NNW 1030,1 10 36 0,0
22.04.2017 10:00:00 7,6 2,4 16 9 - - NW 1030,0 10 0 0,0
22.04.2017 09:00:00 7,3 2,2 13 7 - - NW 1029,9 10 54 0,0
22.04.2017 08:00:00 6,6 3,3 13 7 - - W 1029,8 10 48 0,0
22.04.2017 07:00:00 5,8 3,2 9 5 - - WNW 1029,6 10 0 0,0
22.04.2017 06:00:00 5,7 4,0 8 4 - - NW 1029,5 10 0 0,0
22.04.2017 05:00:00 5,7 4,7 5 3 - - WNW 1029,2 10 0 0,0
22.04.2017 04:00:00 6,0 4,1 8 4 - - WNW 1029,2 10 0 0,2
22.04.2017 03:00:00 6,2 5,2 4 2 - - WNW 1029,4 10 0 0,0
22.04.2017 02:00:00 5,9 4,9 4 2 - - NW 1029,6 10 0 0,0
22.04.2017 01:00:00 6,3 5,0 4 2 - - NW 1029,6 10 - 0,4
22.04.2017 00:00:00 7,1 4,7 11 6 - - NNE 1029,4 10 0 0,0
21.04.2017 23:00:00 7,0 5,9 5 3 - - NNW 1029,4 10 0 0,0
21.04.2017 22:00:00 7,3 6,9 4 2 - - WNW 1029,1 10 0 0,0
21.04.2017 21:00:00 6,4 5,8 4 2 - - W 1028,7 10 6 0,0
21.04.2017 20:00:00 7,4 6,6 5 3 - - SSE 1028,2 10 18 0,0
21.04.2017 19:00:00 8,1 7,1 4 2 - - SE 1027,8 10 18 0,0
21.04.2017 18:00:00 8,1 7,5 2 1 - - NW 1027,4 10 0 0,4
21.04.2017 17:00:00 7,5 7,0 9 5 - - NNE 1027,4 7 0 1,0
21.04.2017 16:00:00 7,8 7,1 15 8 - - NE 1027,2 10 0 0,0
21.04.2017 15:00:00 7,9 7,0 21 11 54 29 NNE 1026,9 10 0 0,0
21.04.2017 14:00:00 14,2 6,7 39 21 54 29 W 1026,0 10 0 0,0
21.04.2017 13:00:00 14,1 6,7 37 20 59 32 W 1025,8 10 0 0,0
21.04.2017 12:00:00 13,8 7,3 41 22 65 35 W 1026,1 10 0 0,0
21.04.2017 11:00:00 13,6 7,1 39 21 61 33 W 1025,7 10 0 0,0
21.04.2017 10:00:00 13,5 7,2 35 19 57 31 W 1026,0 10 24 0,0
21.04.2017 09:00:00 13,4 7,1 31 17 48 26 W 1026,0 10 60 0,0
21.04.2017 08:00:00 12,1 7,2 26 14 - - W 1026,5 10 60 0,0
21.04.2017 07:00:00 10,9 7,0 28 15 - - W 1026,3 10 36 0,0
21.04.2017 06:00:00 8,4 6,3 16 9 - - SW 1027,0 10 0 0,0
21.04.2017 05:00:00 10,4 6,4 31 17 46 25 WSW 1027,5 10 0 0,0
21.04.2017 04:00:00 10,8 6,0 26 14 - - WSW 1027,7 10 0 0,0

tt = temperature
td = dewpoint
ff = wind speed
fx = gusts
dd = wind direction
ppp = reduced air pressure
vv = visibility
sd = sunshine duration
rr = precipitation

Next stations